User: anonymous   Login
Location: Gad�tanya
(48.0500°N, 20.8500°E)
Time: 08:12:09
(UTC+00:00)
Language:

Cosmos 1633 - Orbit

View from above orbital plane
View from above orbital plane
View from above satellite
View from above satellite

Ground track
Ground track

The orbit data is extracted from the following two-line orbital elements,

1 15592U 85020A   20272.84384297 +.00002122 +00000-0 +69069-4 0  9996
2 15592 082.5407 194.5414 0011065 241.6406 118.3720 15.31237278947443
Epoch (UTC): 28 September 2020 20:15:08
Eccentricity: 0.0011065
inclination: 82.5407°
perigee height: 464 km
apogee height: 480 km
right ascension of ascending node: 194.5414°
argument of perigee: 241.6406°
revolutions per day: 15.31237278
mean anomaly at epoch: 118.3720°
orbit number at epoch: 94744

The dashed part of the orbit path shows where the satellite is in the earth's shadow,  

DLR